Holland, MI

3:33 PM EDT on March 29, 2017 (GMT -0400)
Tulip City

Weather History for KBIV - November, 2012

Change the Weather History Date:

Thursday, November 8, 2012

  Actual Average Record
Temperature  
Mean Temperature 38 °F 45 °F  
Max Temperature 47 °F 52 °F 66 °F (2010)
Min Temperature 28 °F 37 °F 19 °F (1971)
Degree Days  
Heating Degree Days 27 20  
Month to date heating degree days 207 152  
Since 1 July heating degree days 755 677  
Cooling Degree Days 0 0  
Month to date cooling degree days 0 0  
Year to date cooling degree days 1067 693  
Moisture  
Dew Point 33 °F    
Average Humidity 77    
Maximum Humidity 89    
Minimum Humidity 65    
Precipitation  
Precipitation 0.00 in 0.12 in 0.73 in (2011)
Month to date precipitation T 1.16  
Year to date precipitation 30.09 31.86  
Sea Level Pressure  
Sea Level Pressure 30.18 in    
Wind  
Wind Speed 3 mph (South)    
Max Wind Speed 9 mph    
Max Gust Speed 12 mph    
Visibility 7 miles    
Events      
T = Trace of Precipitation, MM = Missing Value Source: NWS Daily Summary

Daily Weather History Graph

Daily Weather History Graph

Search for Another Location

Airport or City:

Trip Planner

Search our weather history database for the weather conditions in past years. The results will help you decide how hot, cold, wet, or windy it might be!

Date:

Astronomy

Nov. 08, 2012 Rise Set
Actual Time 7:27 AM EST 5:27 PM EST
Civil Twilight 6:57 AM EST 5:57 PM EST
Nautical Twilight 6:24 AM EST 6:31 PM EST
Astronomical Twilight 5:51 AM EST 7:04 PM EST
Moon 1:14 AM EST (11/8) 2:15 PM EST (11/8)
Length of Visible Light 10h 59m
Length of Day
10h 00m
Waning Crescent, 33% of the Moon is Illuminated
Nov 8
Waning Crescent
Nov 13
New
Nov 20
First Quarter
Nov 28
Full
Dec 6
Last Quarter

Hourly Weather History & Observations

Time (EST) Temp. Windchill Dew Point Humidity Pressure Visibility Wind Dir Wind Speed Gust Speed Precip Events Conditions
12:53 AM 32.0 °F - 28.9 °F 88% 30.18 in 5.0 mi Calm Calm - N/A   Clear
1:53 AM 30.9 °F - 27.0 °F 85% 30.18 in 5.0 mi Calm Calm - N/A   Clear
2:53 AM 30.0 °F - 26.1 °F 85% 30.18 in 5.0 mi Calm Calm - N/A   Clear
3:53 AM 30.0 °F - 27.0 °F 88% 30.19 in 6.0 mi Calm Calm - N/A   Clear
4:53 AM 30.0 °F - 26.1 °F 85% 30.20 in 5.0 mi Calm Calm - N/A   Mostly Cloudy
5:53 AM 33.1 °F - 28.9 °F 85% 30.20 in 5.0 mi Calm Calm - N/A   Overcast
6:53 AM 34.0 °F 31.0 °F 30.0 °F 85% 30.21 in 5.0 mi SE 3.5 mph - N/A   Overcast
7:53 AM 35.1 °F 31.0 °F 30.0 °F 82% 30.22 in 5.0 mi SE 4.6 mph - N/A   Haze
8:53 AM 36.0 °F - 30.9 °F 82% 30.23 in 4.0 mi Calm Calm - N/A   Haze
9:53 AM 37.9 °F - 32.0 °F 79% 30.22 in 5.0 mi Calm Calm - N/A   Haze
10:53 AM 39.9 °F 36.7 °F 33.1 °F 77% 30.23 in 7.0 mi South 4.6 mph - N/A   Overcast
11:53 AM 42.1 °F 37.7 °F 33.1 °F 70% 30.21 in 8.0 mi SSE 6.9 mph - N/A   Overcast
12:53 PM 43.0 °F 40.3 °F 35.1 °F 74% 30.19 in 7.0 mi South 4.6 mph - N/A   Overcast
1:43 PM 44.6 °F 41.4 °F 35.6 °F 71% 30.16 in 6.0 mi South 5.8 mph - N/A   Haze
1:53 PM 44.1 °F 40.8 °F 36.0 °F 73% 30.18 in 6.0 mi South 5.8 mph - N/A   Haze
2:53 PM 45.0 °F 41.8 °F 37.0 °F 74% 30.16 in 5.0 mi South 5.8 mph - N/A   Haze
3:53 PM 46.0 °F - 37.9 °F 73% 30.16 in 5.0 mi Calm Calm - N/A   Haze
4:53 PM 46.9 °F - 37.9 °F 71% 30.16 in 8.0 mi WSW 8.1 mph - N/A   Overcast
5:37 PM 46.4 °F 42.9 °F 37.4 °F 71% 30.14 in 10.0 mi SW 6.9 mph - N/A   Overcast
5:53 PM 46.0 °F 41.9 °F 36.0 °F 68% 30.16 in 10.0 mi SW 8.1 mph - N/A   Overcast
6:53 PM 45.0 °F 40.6 °F 35.1 °F 68% 30.15 in 10.0 mi SSW 8.1 mph - N/A   Mostly Cloudy
7:53 PM 41.0 °F 37.1 °F 34.0 °F 76% 30.15 in 8.0 mi South 5.8 mph - N/A   Clear
8:51 PM 42.8 °F 39.3 °F 33.8 °F 70% 30.13 in 8.0 mi South 5.8 mph - N/A   Mostly Cloudy
8:53 PM 42.1 °F 38.4 °F 34.0 °F 73% 30.15 in 8.0 mi South 5.8 mph - N/A   Mostly Cloudy
9:53 PM 43.0 °F 38.8 °F 34.0 °F 71% 30.15 in 8.0 mi South 6.9 mph - N/A   Overcast
10:53 PM 43.0 °F 38.8 °F 34.0 °F 71% 30.14 in 9.0 mi South 6.9 mph - N/A   Overcast
11:53 PM 43.0 °F 38.2 °F 34.0 °F 71% 30.14 in 8.0 mi South 8.1 mph - N/A   Overcast